Bei uns kannst du mitfliegen! Besuche uns und lerne uns kennen - als Gast, Pilot oder jemand der es werden möchte.

Kölner Klub für Luftsport e.V.

KKFL.de

Ausbildung – Fliegen – Abenteuer

Ausbildung im KKFL

Ausbildung

Fliegen lernen im Verein
Der KKFL.de bietet eine effiziente, schnelle Ausbildung zur Pivatpilotenlizenz (PPL) in verschiedenen Ausprägungen an. Nach der Ausbildung können diverse Ergänzungen vom Verstellpropeller bis hin zu Nachtflug oder das Fliegen nach Instrumentenflugregeln (IFR) angeschlossen werden.
Fliegen im Verein ist günstig!

Unsere Flotte

Cessna 172 S

D-EOCD
Die Cessna ist als schnelle Schul- und Reisemaschine gleichsam beliebt. Unsere vereins-eigene Flotte sorgt für Abwechlung bei den Piloten und unsere Werft senkt Kosten. In der Ausbildung dürfen Schüler über 'ihre Maschine' mit entscheiden.

Cessna 172 R

D-EFPB

Piper PA 28 II

D-EFPA

Aquila A210

D-EAQJ

Piper PA 28 II

D-ELFF

Flugplatz Hangelar


[Quelle: ADDS]
METAR
EDDK 270250Z 18004KT 6000 -RADZ FEW005 BKN009 14/13 Q1009 TEMPO BKN012 =
AMD EDDK 270158Z 2701/2806 26008KT 7000 BKN012 BECMG 2702/2703 4000 -DZRA BKN008 BECMG 2703/2706 9999 SCT035 BECMG 2718/2721 VRB03KT BECMG 2803/2806 26005KT
TAF
AMD EDDK 270158Z 2701/2806 26008KT 7000 BKN012 BECMG 2702/2703 4000 -DZRA BKN008 BECMG 2703/2706 9999 SCT035 BECMG 2718/2721 VRB03KT BECMG 2803/2806 26005KT =
SR / SS: 03:27 / 19:29 UTC (EDKB 2019-05-27)

Du willst fliegen?

Während unserer Bürozeiten und auch dazwischen sind wir für deine Fragen da.
Bitte kontaktiere den Verein unter den angegebenen Adressen.
© 2018 - Kölner Klub für Luftsport e.V.
Bonn / Hangelar - EDKB - Germany